Regional Weather Roundup
Issued by NWS Midland/Odessa, TX

Skip options and go directly to product.
Home | Oldest Version | Next Version | Current Version | All | Text Only | Save Text | Print | Product List | Glossary On

Skip product version selection by date and time.   
822
ASUS44 KMAF 300710
RWRMAF
MIDLAND AREA WEATHER ROUNDUP
NATIONAL WEATHER SERVICE MIDLAND TX
200 AM CDT TUE SEP 30 2014

...IN SOUTHWEST TEXAS AND SOUTHEAST NEW MEXICO...

CITY           SKY/WX    TMP DP  RH WIND       PRES   REMARKS
ALPINE         CLEAR     63  56  76 S6        30.06F
ANDREWS        FAIR      67  58  72 S8        29.94S
ARTESIA        NOT AVBL
BIG SPRING     PTCLDY    69  56  63 SE9       29.95F
CARLSBAD       MOCLDY    68  60  75 SE6       29.91R
DRYDEN           N/A     69  63  81 N5        29.91S
FORT STOCKTON  PTCLDY    68  59  73 S13       29.93F
GUAD PASS      PTCLDY    64  56  75 W10       30.05F
HOBBS          PTCLDY    64  59  82 SE7       29.96F
MARFA          CLEAR     55  54  94 NW3       30.06F
MIDLAND AIRPK  PTCLDY    71  59  66 S9        29.94S
MIDLAND INTL   PTCLDY    70  59  68 S14       29.93F
ODESSA         PTCLDY    69  58  67 S9        29.94F
PECOS          PTCLDY    67  58  72 E7        29.88S
PRESIDIO       FAIR      74  59  59 N9        29.91F
SEMINOLE       CLEAR     64  58  81 S9        29.95F
SNYDER         PTCLDY    68  58  68 SE9       29.94S
WINK           CLEAR     69  59  70 SE12      29.89F
$$
...OTHER STATIONS IN TEXAS...

CITY           SKY/WX    TMP DP  RH WIND       PRES   REMARKS
ABILENE        CLEAR     68  54  60 SE8       29.93F
AMARILLO       MOCLDY    66  57  72 S18       29.94F
AUSTIN         CLEAR     65  63  93 CALM      29.89S
BROWNSVILLE    CLEAR     75  75 100 CALM      29.84F
CORPUS CHRISTI PTCLDY    75  73  93 CALM      29.85F
DALLAS FTW     PTCLDY    73  64  73 E3        29.90S
DEL RIO        CLEAR     73  67  81 SE7       29.88F
EL PASO        PTCLDY    73  57  57 S9        29.93F
HOUSTON INT    PTCLDY    74  72  93 E3        29.86S
LUBBOCK        CLEAR     64  57  78 S9        29.94F
SAN ANGELO     CLEAR     68  58  70 S7        29.93R
SAN ANTONIO    CLEAR     71  64  78 NW5       29.90S
WACO           CLEAR     68  61  78 CALM      29.90S
WICHITA FALLS  NOT AVBL
$$
...OTHER LOCATIONS IN NEW MEXICO...

CITY           SKY/WX    TMP DP  RH WIND       PRES   REMARKS
ALAMAGORDO     CLEAR     63  54  72 CALM      29.95S
ALBUQUERQUE    CLEAR     57  34  41 W9        30.05S
CANNON AFB     NOT AVBL
CLOVIS           N/A     61  54  77 SE7       29.99F
HOLLOMAN AFB   CLEAR     67  57  68 S6        29.93R
ROSWELL        CLEAR     65  58  78 S12       29.91F
RUIDOSO        CLEAR     63  45  51 W9        30.10F
SANTA FE       CLEAR     49  34  56 N12       30.07F
TRUTH OR CONSE CLEAR     64  45  49 NW9       29.98S
TUCUMCARI      MOCLDY    64  58  80 S10       29.92F
$$

USA.gov is the U.S. government's official web portal to all federal, state and local government web resources and services.